Weather History for Fairbanks Ft. Wainwright, AK

Change the Weather History Date:

Friday, December 28, 2012

  Actual Average Record
Temperature  
Mean Temperature -10 °F -  
Max Temperature -4 °F 0 °F 23 °F (2001)
Min Temperature -16 °F -5 °F -33 °F (2013)
Degree Days  
Heating Degree Days 75    
Moisture  
Dew Point -16 °F    
Average Humidity 77    
Maximum Humidity 84    
Minimum Humidity 71    
Precipitation  
Precipitation 0.00 in - - ()
Snow  
Snow 0.00 in - - ()
Snow Depth 14.00 in    
Sea Level Pressure  
Sea Level Pressure 29.64 in    
Wind  
Wind Speed 0 mph (ENE)    
Max Wind Speed 4 mph    
Max Gust Speed -    
Visibility 11 miles    
Events      
Averages and records for this station are not official NWS values.
T = Trace of Precipitation, MM = Missing Value Source: NWS Daily Summary

Daily Weather History Graph

Daily Weather History Graph

Search for Another Location

Airport:

Trip Planner

Search our weather history database for the weather conditions in past years. The results will help you decide how hot, cold, wet, or windy it might be!

Date:

Astronomy

Dec. 28, 2012 Rise Set
Actual Time 10:57 AM AKST 2:47 PM AKST
Civil Twilight 9:33 AM AKST 4:11 PM AKST
Nautical Twilight 8:22 AM AKST 5:23 PM AKST
Astronomical Twilight 7:20 AM AKST 6:24 PM AKST
Moon 4:15 PM AKST (12/28) 10:19 AM AKST (12/28)
Length of Visible Light 6h 38m
Length of Day
3h 50m
Full, 100% of the Moon is Illuminated
Dec 28
Full
Jan 4
Last Quarter
Jan 11
New
Jan 18
First Quarter
Jan 26
Full

Hourly Weather History & Observations

Time (AKST) Temp. Windchill Dew Point Humidity Pressure Visibility Wind Dir Wind Speed Gust Speed Precip Events Conditions
12:56 AM -16.1 °F - -20.9 °F 79% 29.59 in 10.0 mi Calm Calm - N/A   Clear
1:56 AM -16.1 °F - -23.1 °F 71% 29.60 in 10.0 mi Calm Calm - N/A   Clear
2:56 AM -16.1 °F - -22.0 °F 74% 29.61 in 10.0 mi Calm Calm - N/A   Clear
3:56 AM -16.1 °F -26.2 °F -20.9 °F 79% 29.62 in 10.0 mi ENE 3.5 mph - N/A   Clear
4:56 AM -16.1 °F - -20.9 °F 79% 29.62 in 10.0 mi Calm Calm - N/A   Clear
5:56 AM -11.0 °F - -17.0 °F 75% 29.63 in 10.0 mi Calm Calm - N/A   Clear
6:30 AM -9.4 °F - -14.8 °F 77% 29.57 in 10.0 mi Calm Calm - N/A   Mostly Cloudy
6:55 AM -7.6 °F - -13.0 °F 77% 29.63 in 10.0 mi Calm Calm - N/A   Mostly Cloudy
7:55 AM -5.8 °F - -11.2 °F 77% 29.64 in 10.0 mi Calm Calm - N/A   Mostly Cloudy
8:55 AM -4.0 °F - -9.4 °F 78% 29.64 in 10.0 mi Calm Calm - N/A   Mostly Cloudy
9:55 AM -4.0 °F - -9.4 °F 78% 29.65 in 10.0 mi Calm Calm - N/A   Mostly Cloudy
10:55 AM -5.8 °F - -9.4 °F 84% 29.66 in 13.0 mi Calm Calm - N/A   Mostly Cloudy
11:55 AM -4.0 °F - -9.4 °F 78% 29.66 in 13.0 mi Calm Calm - N/A   Scattered Clouds
12:55 PM -4.0 °F - -9.4 °F 78% 29.66 in 13.0 mi Calm Calm - N/A   Mostly Cloudy
1:55 PM -5.8 °F - -11.2 °F 77% 29.67 in 13.0 mi Calm Calm - N/A   Scattered Clouds
2:55 PM -7.6 °F - -13.0 °F 77% 29.67 in 13.0 mi Calm Calm - N/A   Partly Cloudy
3:55 PM -9.4 °F - -16.6 °F 71% 29.66 in 13.0 mi Calm Calm - N/A   Partly Cloudy
4:56 PM -11.9 °F - -17.0 °F 78% 29.65 in 10.0 mi Calm Calm - N/A   Partly Cloudy
5:56 PM -11.0 °F - -17.0 °F 75% 29.66 in 10.0 mi Calm Calm - N/A   Clear
6:56 PM -11.9 °F - -18.0 °F 74% 29.66 in 10.0 mi Calm Calm - N/A   Clear
7:56 PM -11.9 °F -21.5 °F -18.0 °F 74% 29.65 in 10.0 mi ENE 3.5 mph - N/A   Clear
8:56 PM -13.0 °F - -18.9 °F 75% 29.65 in 10.0 mi Calm Calm - N/A   Clear
9:56 PM -11.0 °F - -17.0 °F 75% 29.64 in 10.0 mi Calm Calm - N/A   Clear
10:56 PM -11.9 °F - -17.0 °F 78% 29.64 in 10.0 mi Calm Calm - N/A   Clear
11:56 PM -11.0 °F - -17.0 °F 75% 29.62 in 10.0 mi Calm Calm - N/A   Clear